Home > Weather > Novorossiysk > Past weeks

Flag for Russia Past Weather in Novorossiysk, Russia — Yesterday and Last 2 Weeks

Now
70 °F

Clear.


Feels Like: 70 °F
Forecast: 67 / 85 °F
Wind: 3 mph from Northeast

Location: Anapa / Vitiazevo

Current Time: Aug 25, 2016 at 9:53:56 PM

Latest Report: Aug 25, 2016 at 9:00 PM


Visibility: 10 mi

Pressure: 29.92 "Hg

Humidity: 83%

Dew Point: 64 °F

Location of NovorossiyskLocation

Past Weather in Novorossiysk — Graph

°F

Novorossiysk Temperature Yesterday

Maximum temperature yesterday: 86 °F (at 11:30 AM)
Minimum temperature yesterday: 73 °F (at 12:00 AM)
Average temperature yesterday: 79 °F

High & Low Weather Summary for the Past Weeks

 TemperatureHumidityPressure
High99 °F (Aug 20, 4:30 PM)100% (Aug 13, 3:00 AM)30.09 "Hg (Aug 13, 3:00 AM)
Low52 °F (Aug 15, 5:30 AM)31% (Aug 16, 1:30 PM)29.74 "Hg (Aug 10, 8:00 PM)
Average78 °F72%29.88 "Hg
* Reported Aug 10 8:00 PM — Aug 25 8:30 PM, Novorossiysk, Weather by CustomWeather, © 2016

Note: Actual official high and low records may vary slightly from our data, if they occured in-between our weather recording intervals... More about our weather records

Advertising

Novorossiysk Weather History for the Previous 24 Hours

Scroll right to see more
 ConditionsComfort  
Time TempWeatherWind HumidityBarometerVisibility
8:30 PM
Thu, Aug 25
72 °FClear.3 mph78%29.92 "Hg10 mi
8:00 PM72 °FClear.3 mph78%29.92 "Hg10 mi
7:30 PM75 °FClear.3 mph74%29.89 "Hg10 mi
7:00 PM77 °FSunny.6 mph69%29.89 "Hg10 mi
6:30 PM79 °FPassing clouds.8 mph65%29.89 "HgN/A
6:00 PM79 °FPassing clouds.10 mph65%29.89 "HgN/A
5:30 PM79 °FSunny.10 mph65%29.89 "Hg10 mi
5:00 PM82 °FSunny.10 mph58%29.89 "Hg10 mi
4:30 PM81 °FSunny.10 mph62%29.89 "Hg10 mi
4:00 PM81 °FPassing clouds.10 mph62%29.89 "HgN/A
3:30 PM82 °FPassing clouds.10 mph58%29.89 "HgN/A
3:00 PM82 °FPassing clouds.13 mph62%29.89 "HgN/A
2:30 PM84 °FScattered clouds.13 mph62%29.89 "HgN/A
2:00 PM84 °FScattered clouds.13 mph62%29.89 "HgN/A
1:00 PM84 °FScattered clouds.13 mph62%29.89 "HgN/A
12:30 PM82 °FScattered clouds.10 mph62%29.86 "HgN/A
12:00 PM82 °FPassing clouds.10 mph62%29.86 "HgN/A
11:30 AM82 °FPassing clouds.10 mph66%29.86 "HgN/A
11:00 AM82 °FScattered clouds.10 mph66%29.86 "HgN/A
10:30 AM81 °FPassing clouds.8 mph70%29.89 "HgN/A
10:00 AM81 °FScattered clouds.8 mph70%29.86 "HgN/A
9:30 AM81 °FScattered clouds.6 mph70%29.86 "HgN/A
9:00 AM79 °FScattered clouds.8 mph74%29.86 "HgN/A
8:30 AM79 °FPassing clouds.6 mph74%29.86 "HgN/A
8:00 AM77 °FPassing clouds.8 mph79%29.86 "HgN/A
7:30 AM77 °FScattered clouds.6 mph79%29.86 "HgN/A
7:00 AM73 °FMild.3 mph94%29.86 "HgN/A
6:30 AM72 °FMild.1 mph94%29.86 "HgN/A
6:00 AM68 °FMild.3 mph94%29.83 "HgN/A
5:30 AM70 °FMild.1 mph94%29.83 "HgN/A
5:00 AM73 °FMild.3 mph89%29.83 "HgN/A
4:00 AM75 °FMild.6 mph83%29.83 "HgN/A
3:30 AM73 °FMild.3 mph83%29.83 "HgN/A
3:00 AM73 °FMild.3 mph83%29.83 "HgN/A
2:30 AM75 °FMild.6 mph78%29.80 "HgN/A
2:00 AM75 °FMild.6 mph89%29.80 "HgN/A
1:30 AM77 °FWarm.8 mph83%29.83 "HgN/A
1:00 AM79 °FWarm.8 mph84%29.80 "HgN/A
12:30 AM77 °FWarm.8 mph89%29.83 "HgN/A
12:00 AM75 °FPassing clouds.6 mph89%29.83 "HgN/A
11:30 PM
Wed, Aug 24
73 °FPassing clouds.6 mph94%29.83 "HgN/A
11:00 PM75 °FPassing clouds.6 mph89%29.83 "HgN/A
10:30 PM75 °FPassing clouds.6 mph89%29.83 "HgN/A
10:00 PM73 °FPassing clouds.6 mph89%29.83 "HgN/A
9:30 PM73 °FPassing clouds.6 mph89%29.83 "HgN/A
9:00 PM77 °FPassing clouds.1 mph83%29.86 "HgN/A
Weather by CustomWeather, © 2016

See weather overviewHow to use our weather pages